OBJECT G, 64093

Orbit data source: Space-Track

You're viewing an Uncataloged Satellite

Recently launched and/or uncataloged satellites may have evolving metadata. Metadata may include but not limited to: Owner, Maufacturer, Bus, Motor, and Mission.

OBJECT G, 64093 is a satellite owned by CASC (CN) in SSO that was launched on Wed, 21 May 2025 UTC launched from the Jiuquan Satellite Launch Center, China (JSC). Unknown objects in Earth's orbit typically refer to objects detected orbiting the Earth but have not yet been identified or cataloged. These objects could be anything from previously untracked satellites, spent rocket stages, debris from satellite collisions, or even natural meteoroids temporarily captured by Earth's gravity.

Loading next visibility...
Identifier
64093, 2025-108G
Orbit
SSO
Last TLE update
8 hours ago
Origin
Manufacturer
CAS
Mission
Spacecraft
Bus & Motor
Unknown
Mass
500 kg wet, 500 kg dry
Launch date (UTC)
2025-05-21 (2 months ago)
Launch vehicle
Unknown
Launch site
Jiuquan Satellite Launch Center, China (JSC)
Object type
Unknown
Shape & HBR
Cyl, 2.8 m
Radar Cross Section
8.585 m², Large (>1 m²)

Expand to show TLE details & history

TLE from 8 hours ago
0 OBJECT G
1 64093U 25108G   25192.16418801  .00011561  00000-0  27345-3 0  9994
2 64093  97.4639 268.6921 0104039 195.3760 164.4317 15.36412159  7790
Epoch: 2025-07-11T03:56Z
TLE epoch observation values (Epoch: 2025-07-11T03:56:25.844Z)
Latitude
0.00003°
Longitude
-79.73563°
Altitude
528.409 km
Speed
7.561 km/s
True Right ascension
17h 54m 46s
True Declination
0° 00' 00"
Sunlit
Object was in full shadow at epoch
Visualization orbit readout
Latitude
59.32143°
Longitude
-92.08099°
Altitude
515.931 km
Speed
7.584 km/s
Apparent Right ascension
14h 15m 37s
Apparent Declination
14° 55' 37"
Sunlit
Object is in daylight
Visualization observer readout
Local Sidereal Time
00:19:24
Azimuth
327.604° NNW
Elevation
-28.852°
Doppler factor
1
Orbital elements
Apogee altitude
524.753 km
Perigee altitude
382.598 km
Semi-major axis
6,831.812 km
Eccentricity
0.0104
Inclination
97.4639°
RAAN
268.6921°
Arg. of periapsis
195.376°
True anomaly
Unknown
Mean anomaly
164.4317°
Eccentric anomaly
Unknown
Mean motion
3.84361 °/min
Orbital period
93.66 mins
BSTAR
0.00027345
Loading maneuver chart data...
Loading SW <> Apogee altitude chart data...
Loading historical data...
Loading historical data...
Loading historical data...
Loading historical data...
Loading historical data...
Loading historical data...
Loading historical data...
Other satellites on launch #108 in the year 2025 (2025-05-21 UTC)

OBJECT G Visibility forecast

Observer location: undefined°, undefined°

Span
Click to sort rows by Start time (UTC) header in descending order
Start Az.
Max El. time (UTC)
Max El. Az.
Max El.
End time (UTC)
End Az.
4 mins2025-07-11 18:35:16.571Z330.444° NNW2025-07-11 18:36:16.571Z304.315° NW23.454°2025-07-11 18:39:16.571Z230.26° WSW
6 mins2025-07-12 05:05:16.571Z160.291° S2025-07-12 05:07:16.571Z138.036° SSE42.01°2025-07-12 05:11:16.571Z351.322° N
|